Flag for Germany Weather past 2 weeks in Altenburg, Thuringia, Germany

Now
46 °F

Clear.


Feels Like: 46 °F
Forecast: 40 / 54 °F
Wind: 2 mph from Southeast

Location: Altenburg Nobitz

Current Time: Oct 24, 2014 at 11:21:32 PM

Latest Report: Oct 24, 2014 at 7:50 PM


Visibility: 10 mi

Pressure: 30.15 "Hg

Humidity: 93%

Dew point: 45 °F

Location of AltenburgLocation

Historic Weather in Altenburg — Graph

°F

Altenburg temperature yesterday

Maximum temperature yesterday: 50 °F (at 3:50 PM)
Minimum temperature yesterday: 48 °F (at 8:50 AM)
Average temperature yesterday: 49 °F

Past Weeks' High & Low Weather Summary

 TemperatureHumidityPressure
High72 °F (Oct 19, 2:50 PM)100% (Oct 11, 9:50 AM)30.24 "Hg (Oct 11, 9:50 AM)
Low41 °F (Oct 22, 8:20 AM)59% (Oct 20, 12:20 PM)29.53 "Hg (Oct 21, 7:50 PM)
Average59 °F79%29.93 "Hg
* Reported Oct 9 7:20 PM — Oct 24 7:50 PM, Altenburg, Weather by CustomWeather, © 2014

Note: Actual official high and low records may vary slightly from our data, if they occured in-between our weather recording intervals... More about our weather records

Advertising

Altenburg weather history for previous 24 hours

 ConditionsComfort  
Time TempWeatherWind HumidityBarometerVisibility
7:50 PM
Oct 24
46 °FClear.2 mph93%30.15 "Hg10 mi
7:20 PM48 °FClear.2 mph87%30.15 "Hg10 mi
6:50 PM48 °FSunny.3 mph94%30.15 "Hg10 mi
6:20 PM48 °FSunny.2 mph94%30.15 "Hg10 mi
5:50 PM52 °FSunny.1 mph82%30.15 "Hg10 mi
5:20 PM55 °FSunny.2 mph67%30.15 "Hg10 mi
4:50 PM55 °FSunny.2 mph67%30.15 "Hg10 mi
4:20 PM55 °FPassing clouds.3 mph67%30.18 "HgN/A
3:50 PM55 °FPassing clouds.5 mph67%30.18 "HgN/A
3:20 PM55 °FPassing clouds.5 mph67%30.18 "HgN/A
2:50 PM57 °FScattered clouds.3 mph63%30.18 "HgN/A
2:20 PM57 °FScattered clouds.5 mph63%30.18 "HgN/A
1:50 PM57 °FScattered clouds.5 mph63%30.21 "HgN/A
1:20 PM57 °FScattered clouds.5 mph63%30.21 "HgN/A
12:50 PM55 °FScattered clouds.5 mph72%30.24 "HgN/A
12:20 PM55 °FScattered clouds.3 mph72%30.24 "HgN/A
11:50 AM54 °FScattered clouds.3 mph77%30.24 "HgN/A
11:20 AM54 °FScattered clouds.7 mph72%30.24 "HgN/A
10:50 AM52 °FPassing clouds.6 mph82%30.24 "Hg5 mi
10:20 AM52 °FPartly sunny.3 mph94%30.24 "Hg4 mi
9:50 AM50 °FFog.1 mph100%30.24 "Hg3 mi
9:20 AM48 °FFog.1 mph100%30.24 "Hg3 mi
8:50 AM46 °FFog.1 mph100%30.24 "Hg3 mi
8:20 AM46 °FPartly cloudy.1 mph100%30.24 "Hg4 mi
Weather by CustomWeather, © 2014

See weather overviewHow to use our weather pages